Вернуться в каталог

FENGYUN 1C DEB

АктивенSSO
NORAD 30198·DEBRIS·🇨🇳 China

Запущен May 10, 1999 с Taiyuan Satellite Launch Center

Loading…

Ближайшие Пролёты (ближайшие 24 часа)

TLE

СвежийSource: Space-Track

Эпоха: Sep 14, 2026, 08:24 UTC

1 30198U 99025VF  26257.35066359  .00003103  00000-0  70785-3 0  9992
2 30198  98.4788  35.5283 0102786  76.2441 313.9872 14.53310393 24945

Отслеживайте FENGYUN 1C DEB в реальном времени с AllMySat

Download on the App Store